Cleburne, TX

6:28 AM CDT on October 01, 2016 (GMT -0500)
Cleburne

Weather History for KCPT - October, 2013

Change the Weather History Date:

Tuesday, October 29, 2013

  Actual Average (KDFW) Record (KDFW)
Temperature  
Mean Temperature 70 °F 63 °F  
Max Temperature 75 °F 74 °F 92 °F (1937)
Min Temperature 66 °F 53 °F 31 °F (1910)
Degree Days  
Heating Degree Days 0 4  
Month to date heating degree days 58  
Since 1 July heating degree days 64  
Cooling Degree Days 6 3  
Month to date cooling degree days 141  
Year to date cooling degree days 2718  
Growing Degree Days 20 (Base 50)    
Moisture  
Dew Point 70 °F    
Average Humidity 96    
Maximum Humidity 100    
Minimum Humidity 88    
Precipitation  
Precipitation 0.00 in 0.15 in 1.80 in (2000)
Month to date precipitation 3.94  
Year to date precipitation 30.60  
Snow  
Snow 0.00 in 0.00 in T in (1993)
Month to date snowfall 0.0  
Since 1 July snowfall 0.0  
Since 1 September snowfall 0.0  
Snow Depth -    
Sea Level Pressure  
Sea Level Pressure 30.06 in    
Wind  
Wind Speed 12 mph (SSE)    
Max Wind Speed 16 mph    
Max Gust Speed 21 mph    
Visibility 10 miles    
Events      
T = Trace of Precipitation, MM = Missing Value Source: NWS Daily Summary

Daily Weather History Graph

Daily Weather History Graph

Search for Another Location

Airport or City:

Trip Planner

Search our weather history database for the weather conditions in past years. The results will help you decide how hot, cold, wet, or windy it might be!

Date:

Astronomy

Oct. 29, 2013 Rise Set
Actual Time 7:44 AM CDT 6:41 PM CDT
Civil Twilight 7:19 AM CDT 7:07 PM CDT
Nautical Twilight 6:50 AM CDT 7:35 PM CDT
Astronomical Twilight 6:21 AM CDT 8:04 PM CDT
Moon 2:52 AM CDT (10/29) 3:41 PM CDT (10/29)
Length of Visible Light 11h 47m
Length of Day
10h 57m
Waning Crescent, 25% of the Moon is Illuminated
Oct 29
Waning Crescent
Nov 3
New
Nov 9
First Quarter
Nov 17
Full
Nov 25
Last Quarter

Hourly Weather History & Observations

Time (CDT) Temp. Dew Point Humidity Pressure Visibility Wind Dir Wind Speed Gust Speed Precip Events Conditions
12:15 AM 71.6 °F 69.8 °F 94% 30.06 in 10.0 mi SSE 16.1 mph 20.7 mph N/A   Clear
12:35 AM 69.8 °F 69.8 °F 100% 30.06 in 10.0 mi SSE 13.8 mph - N/A   Clear
12:55 AM 69.8 °F 69.8 °F 100% 30.06 in 10.0 mi SSE 13.8 mph - N/A   Clear
1:15 AM 69.8 °F 69.8 °F 100% 30.06 in 10.0 mi SSE 13.8 mph - N/A   Clear
1:35 AM 69.8 °F 69.8 °F 100% 30.07 in 10.0 mi South 12.7 mph - N/A   Partly Cloudy
1:55 AM 69.8 °F 68.0 °F 94% 30.06 in 10.0 mi SSE 12.7 mph 17.3 mph N/A   Mostly Cloudy
2:15 AM 69.8 °F 68.0 °F 94% 30.07 in 10.0 mi SSE 11.5 mph - N/A   Scattered Clouds
2:35 AM 69.8 °F 68.0 °F 94% 30.07 in 10.0 mi SSE 10.4 mph - N/A   Mostly Cloudy
2:55 AM 69.8 °F 68.0 °F 94% 30.07 in 10.0 mi SSE 10.4 mph - N/A   Mostly Cloudy
3:15 AM 69.8 °F 68.0 °F 94% 30.07 in 10.0 mi SSE 9.2 mph - N/A   Overcast
3:35 AM 68.0 °F 68.0 °F 100% 30.06 in 10.0 mi SSE 11.5 mph 16.1 mph N/A   Mostly Cloudy
3:55 AM 68.0 °F 68.0 °F 100% 30.06 in 10.0 mi SSE 12.7 mph - N/A   Mostly Cloudy
4:15 AM 68.0 °F 68.0 °F 100% 30.07 in 10.0 mi SSE 11.5 mph - N/A   Scattered Clouds
4:35 AM 68.0 °F 68.0 °F 100% 30.07 in 10.0 mi SSE 10.4 mph - N/A   Mostly Cloudy
4:55 AM 68.0 °F 68.0 °F 100% 30.07 in 10.0 mi SSE 11.5 mph - N/A   Mostly Cloudy
5:15 AM 68.0 °F 68.0 °F 100% 30.07 in 10.0 mi SSE 10.4 mph - N/A   Mostly Cloudy
5:35 AM 68.0 °F 68.0 °F 100% 30.07 in 10.0 mi SSE 10.4 mph - N/A   Mostly Cloudy
5:55 AM 68.0 °F 68.0 °F 100% 30.08 in 10.0 mi SSE 9.2 mph - N/A   Mostly Cloudy
6:15 AM 66.2 °F 66.2 °F 100% 30.08 in 10.0 mi SSE 10.4 mph - N/A   Mostly Cloudy
6:35 AM 66.2 °F 66.2 °F 100% 30.07 in 10.0 mi SSE 11.5 mph 16.1 mph N/A   Mostly Cloudy
6:55 AM 68.0 °F 68.0 °F 100% 30.07 in 10.0 mi SSE 13.8 mph - N/A   Mostly Cloudy
7:15 AM 66.2 °F 66.2 °F 100% 30.07 in 10.0 mi SSE 12.7 mph - N/A   Scattered Clouds
7:35 AM 68.0 °F 68.0 °F 100% 30.07 in 10.0 mi SSE 10.4 mph - N/A   Mostly Cloudy
7:55 AM 68.0 °F 68.0 °F 100% 30.08 in 10.0 mi SSE 9.2 mph - N/A   Mostly Cloudy
8:15 AM 68.0 °F 68.0 °F 100% 30.08 in 10.0 mi SSE 11.5 mph - N/A   Mostly Cloudy
8:35 AM 68.0 °F 68.0 °F 100% 30.09 in 6.0 mi SSE 11.5 mph - N/A   Mostly Cloudy
8:55 AM 68.0 °F 68.0 °F 100% 30.09 in 9.0 mi SSE 10.4 mph - N/A   Mostly Cloudy
9:15 AM 68.0 °F 68.0 °F 100% 30.09 in 10.0 mi SSE 11.5 mph - N/A   Scattered Clouds
9:35 AM 68.0 °F 68.0 °F 100% 30.10 in 9.0 mi SSE 10.4 mph - N/A   Mostly Cloudy
9:55 AM 69.8 °F 69.8 °F 100% 30.10 in 10.0 mi SSE 11.5 mph - N/A   Mostly Cloudy
10:15 AM 69.8 °F 69.8 °F 100% 30.10 in 10.0 mi SSE 12.7 mph - N/A   Mostly Cloudy
10:35 AM 69.8 °F 69.8 °F 100% 30.10 in 10.0 mi South 9.2 mph - N/A   Mostly Cloudy
10:55 AM 69.8 °F 69.8 °F 100% 30.10 in 10.0 mi SSE 11.5 mph - N/A   Mostly Cloudy
11:15 AM 69.8 °F 69.8 °F 100% 30.10 in 10.0 mi South 10.4 mph - N/A   Mostly Cloudy
11:35 AM 69.8 °F 69.8 °F 100% 30.09 in 10.0 mi South 16.1 mph 19.6 mph N/A   Mostly Cloudy
11:55 AM 71.6 °F 69.8 °F 94% 30.09 in 10.0 mi SSE 10.4 mph - N/A   Mostly Cloudy
12:15 PM 71.6 °F 71.6 °F 100% 30.09 in 10.0 mi South 13.8 mph 18.4 mph N/A   Mostly Cloudy
12:35 PM 71.6 °F 71.6 °F 100% 30.08 in 10.0 mi SSE 11.5 mph - N/A   Scattered Clouds
12:55 PM 71.6 °F 71.6 °F 100% 30.08 in 10.0 mi South 10.4 mph - N/A   Mostly Cloudy
1:15 PM 71.6 °F 71.6 °F 100% 30.07 in 10.0 mi South 13.8 mph 17.3 mph N/A   Mostly Cloudy
1:35 PM 73.4 °F 71.6 °F 94% 30.06 in 10.0 mi South 11.5 mph 18.4 mph N/A   Mostly Cloudy
1:55 PM 73.4 °F 71.6 °F 94% 30.05 in 10.0 mi SSE 10.4 mph - N/A   Mostly Cloudy
2:15 PM 73.4 °F 71.6 °F 94% 30.04 in 10.0 mi SSE 11.5 mph - N/A   Mostly Cloudy
2:35 PM 73.4 °F 71.6 °F 94% 30.03 in 10.0 mi SSE 11.5 mph - N/A   Scattered Clouds
2:55 PM 73.4 °F 71.6 °F 94% 30.02 in 10.0 mi SSE 12.7 mph - N/A   Scattered Clouds
3:15 PM 75.2 °F 71.6 °F 89% 30.02 in 10.0 mi SSE 11.5 mph - N/A   Scattered Clouds
3:35 PM 75.2 °F 71.6 °F 89% 30.02 in 10.0 mi SSE 10.4 mph 16.1 mph N/A   Mostly Cloudy
3:55 PM 75.2 °F 71.6 °F 89% 30.02 in 10.0 mi SSE 10.4 mph - N/A   Scattered Clouds
4:15 PM 75.2 °F 71.6 °F 89% 30.01 in 10.0 mi SSE 10.4 mph - N/A   Partly Cloudy
4:35 PM 75.2 °F 71.6 °F 89% 30.02 in 10.0 mi SSE 13.8 mph - N/A   Partly Cloudy
4:55 PM 75.2 °F 71.6 °F 89% 30.01 in 10.0 mi SSE 13.8 mph - N/A   Clear
5:15 PM 75.2 °F 71.6 °F 89% 30.02 in 10.0 mi SSE 11.5 mph - N/A   Clear
5:35 PM 75.2 °F 71.6 °F 89% 30.01 in 10.0 mi SE 9.2 mph - N/A   Clear
5:55 PM 75.2 °F 71.6 °F 89% 30.02 in 10.0 mi SE 8.1 mph - N/A   Clear
6:15 PM 75.2 °F 71.6 °F 89% 30.02 in 10.0 mi SE 10.4 mph - N/A   Clear
6:35 PM 75.2 °F 71.6 °F 89% 30.02 in 10.0 mi ESE 10.4 mph - N/A   Partly Cloudy
6:55 PM 75.2 °F 71.6 °F 89% 30.02 in 10.0 mi SE 11.5 mph - N/A   Scattered Clouds
7:15 PM 73.4 °F 71.6 °F 94% 30.02 in 10.0 mi SE 12.7 mph - N/A   Clear
7:35 PM 73.4 °F 71.6 °F 94% 30.03 in 10.0 mi SE 13.8 mph - N/A   Clear
7:55 PM 73.4 °F 71.6 °F 94% 30.04 in 10.0 mi SE 11.5 mph - N/A   Clear
8:15 PM 73.4 °F 71.6 °F 94% 30.04 in 10.0 mi SE 12.7 mph - N/A   Clear
8:35 PM 73.4 °F 71.6 °F 94% 30.04 in 10.0 mi SE 12.7 mph - N/A   Clear
8:55 PM 73.4 °F 71.6 °F 94% 30.04 in 10.0 mi SE 12.7 mph - N/A   Clear
9:15 PM 73.4 °F 71.6 °F 94% 30.04 in 10.0 mi SE 12.7 mph - N/A   Clear
9:35 PM 73.4 °F 71.6 °F 94% 30.04 in 10.0 mi SE 11.5 mph - N/A   Scattered Clouds
9:55 PM 73.4 °F 71.6 °F 94% 30.05 in 10.0 mi SSE 10.4 mph 16.1 mph N/A   Partly Cloudy
10:15 PM 73.4 °F 71.6 °F 94% 30.05 in 10.0 mi SSE 12.7 mph - N/A   Clear
10:35 PM 73.4 °F 71.6 °F 94% 30.05 in 10.0 mi SSE 12.7 mph - N/A   Clear
10:55 PM 73.4 °F 69.8 °F 88% 30.05 in 10.0 mi SSE 12.7 mph - N/A   Clear
11:15 PM 71.6 °F 69.8 °F 94% 30.05 in 10.0 mi SSE 13.8 mph - N/A   Clear
11:35 PM 71.6 °F 69.8 °F 94% 30.05 in 10.0 mi SSE 15.0 mph - N/A   Clear
11:55 PM 71.6 °F 69.8 °F 94% 30.04 in 10.0 mi SSE 15.0 mph 19.6 mph N/A   Clear